When you browse on this site, cookies collect data to enhance your experience and personalize the content and advertising you see.
Visit our Privacy Policy to learn more. By continuing to use the site, you agree to this use of cookies and data.
  • In Romania
  • List of Countries
  • For 7 days
  • Water Temperature
  • Weather Map
  • Weather Widgets
  • user-avatar
    Login

    Hourly Weather Kulyub

    Today, 3 April, Friday

    Time Temperature Precipitation Wind Pressure Humidity
    00:00 +15°C° 0 mm 2 mps 722 mmHg 48%
    01:00 +14°C° 0 mm 2 mps 722 mmHg 48%
    02:00 +13°C° 0 mm 2 mps 721 mmHg 49%
    03:00 +13°C° 0 mm 2 mps 721 mmHg 49%
    04:00 +13°C° 0 mm 2 mps 722 mmHg 48%
    05:00 +13°C° 0 mm 2 mps 722 mmHg 48%
    06:00 +14°C° 0 mm 2 mps 722 mmHg 47%
    07:00 +15°C° 0 mm 2 mps 722 mmHg 46%
    08:00 +16°C° 0 mm 2 mps 722 mmHg 45%
    09:00 +18°C° 0 mm 2 mps 722 mmHg 40%
    10:00 +20°C° 0 mm 2 mps 722 mmHg 35%
    11:00 +24°C° 0 mm 2 mps 722 mmHg 29%
    12:00 +25°C° 0 mm 2 mps 722 mmHg 28%
    13:00 +26°C° 0 mm 2 mps 722 mmHg 26%
    14:00 +27°C° 0 mm 2 mps 722 mmHg 24%
    15:00 +27°C° 0 mm 2 mps 721 mmHg 26%
    16:00 +27°C° 0 mm 2 mps 721 mmHg 28%
    17:00 +27°C° 0 mm 2 mps 721 mmHg 30%
    18:00 +25°C° 0 mm 2 mps 721 mmHg 34%
    19:00 +23°C° 0 mm 2 mps 721 mmHg 37%
    20:00 +20°C° 0 mm 2 mps 722 mmHg 41%
    21:00 +19°C° 0 mm 2 mps 722 mmHg 41%
    22:00 +18°C° 0 mm 2 mps 721 mmHg 42%
    23:00 +18°C° 0 mm 3 mps 721 mmHg 42%

    Tomorrow, 4 April, Saturday

    Time Temperature Precipitation Wind Pressure Humidity
    00:00 +17°C° 0 mm 3 mps 721 mmHg 43%
    01:00 +17°C° 0 mm 3 mps 721 mmHg 44%
    02:00 +16°C° 0 mm 2 mps 721 mmHg 45%
    03:00 +16°C° 0 mm 2 mps 721 mmHg 45%
    04:00 +15°C° 0 mm 2 mps 721 mmHg 45%
    05:00 +15°C° 0 mm 2 mps 720 mmHg 45%
    06:00 +16°C° 0 mm 2 mps 721 mmHg 45%
    07:00 +17°C° 0 mm 2 mps 721 mmHg 45%
    08:00 +18°C° 0 mm 2 mps 721 mmHg 45%
    09:00 +20°C° 0 mm 2 mps 721 mmHg 40%
    10:00 +23°C° 0 mm 2 mps 721 mmHg 36%
    11:00 +25°C° 0 mm 2 mps 720 mmHg 31%
    12:00 +26°C° 0 mm 2 mps 720 mmHg 29%
    13:00 +28°C° 0 mm 2 mps 720 mmHg 27%
    14:00 +29°C° 0 mm 2 mps 719 mmHg 25%
    15:00 +29°C° 0 mm 1 mps 719 mmHg 27%
    16:00 +29°C° 0 mm 1 mps 719 mmHg 29%
    17:00 +28°C° 0 mm 1 mps 718 mmHg 31%
    18:00 +26°C° 0 mm 1 mps 719 mmHg 35%
    19:00 +24°C° 0 mm 2 mps 719 mmHg 39%
    20:00 +21°C° 0 mm 2 mps 719 mmHg 43%
    21:00 +20°C° 0 mm 2 mps 719 mmHg 46%
    22:00 +19°C° 0 mm 2 mps 720 mmHg 49%
    23:00 +19°C° 0 mm 2 mps 720 mmHg 51%

    Day after tomorrow, 5 April, Sunday

    Time Temperature Precipitation Wind Pressure Humidity
    00:00 +18°C° 0 mm 2 mps 720 mmHg 53%
    01:00 +18°C° 0 mm 2 mps 720 mmHg 54%
    02:00 +17°C° 0 mm 2 mps 720 mmHg 56%
    03:00 +18°C° 0 mm 1 mps 720 mmHg 58%
    04:00 +18°C° 0 mm 1 mps 720 mmHg 59%
    05:00 +16°C° 0 mm 1 mps 720 mmHg 61%
    06:00 +18°C° 0 mm 1 mps 721 mmHg 60%
    07:00 +19°C° 0 mm 1 mps 721 mmHg 58%
    08:00 +20°C° 0 mm 1 mps 722 mmHg 57%
    09:00 +21°C° 0 mm 1 mps 722 mmHg 54%
    10:00 +22°C° 0 mm 1 mps 722 mmHg 50%
    11:00 +23°C° 0 mm 2 mps 722 mmHg 47%
    12:00 +24°C° 0 mm 3 mps 722 mmHg 46%
    13:00 +24°C° 0 mm 3 mps 722 mmHg 46%
    14:00 +25°C° 0 mm 4 mps 721 mmHg 45%
    15:00 +24°C° 0 mm 3 mps 721 mmHg 46%
    16:00 +24°C° 0 mm 3 mps 721 mmHg 46%
    17:00 +24°C° 0 mm 2 mps 720 mmHg 47%
    18:00 +23°C° 0 mm 2 mps 720 mmHg 53%
    19:00 +20°C° 0 mm 2 mps 720 mmHg 58%
    20:00 +18°C° 0 mm 2 mps 720 mmHg 64%
    21:00 +18°C° 0 mm 2 mps 720 mmHg 65%
    22:00 +18°C° 0 mm 1 mps 721 mmHg 66%
    23:00 +18°C° 0 mm 1 mps 721 mmHg 67%

    6 April, Monday

    Time Temperature Precipitation Wind Pressure Humidity
    00:00 +18°C° 0 mm 1 mps 720 mmHg 67%
    01:00 +16°C° 0 mm 1 mps 720 mmHg 68%
    02:00 +16°C° 0 mm 1 mps 720 mmHg 68%
    03:00 +16°C° 0 mm 1 mps 720 mmHg 67%
    04:00 +16°C° 0 mm 2 mps 719 mmHg 66%
    05:00 +16°C° 0 mm 2 mps 719 mmHg 65%
    06:00 +17°C° 0 mm 2 mps 719 mmHg 64%
    07:00 +18°C° 0 mm 3 mps 719 mmHg 63%
    08:00 +18°C° 0 mm 3 mps 719 mmHg 61%
    09:00 +20°C° 0 mm 2 mps 719 mmHg 55%
    10:00 +23°C° 0 mm 2 mps 719 mmHg 48%
    11:00 +25°C° 0 mm 2 mps 719 mmHg 42%
    12:00 +26°C° 0 mm 2 mps 719 mmHg 39%
    13:00 +27°C° 0 mm 2 mps 719 mmHg 35%
    14:00 +28°C° 0 mm 2 mps 719 mmHg 32%
    15:00 +28°C° 0 mm 2 mps 719 mmHg 32%
    16:00 +28°C° 0 mm 2 mps 719 mmHg 33%
    17:00 +28°C° 0 mm 2 mps 719 mmHg 33%
    18:00 +26°C° 0 mm 2 mps 719 mmHg 38%
    19:00 +24°C° 0 mm 2 mps 719 mmHg 42%
    20:00 +21°C° 0 mm 2 mps 720 mmHg 47%
    21:00 +20°C° 0 mm 2 mps 720 mmHg 49%
    22:00 +19°C° 0 mm 2 mps 720 mmHg 52%
    23:00 +19°C° 0 mm 2 mps 720 mmHg 54%

    7 April, Tuesday

    Time Temperature Precipitation Wind Pressure Humidity
    00:00 +19°C° 0 mm 1 mps 720 mmHg 56%
    01:00 +19°C° 0 mm 1 mps 720 mmHg 59%
    02:00 +18°C° 0 mm 1 mps 720 mmHg 61%
    03:00 +18°C° 0 mm 1 mps 719 mmHg 63%
    04:00 +16°C° 0 mm 1 mps 719 mmHg 65%
    05:00 +16°C° 0 mm 1 mps 719 mmHg 67%
    06:00 +18°C° 0 mm 1 mps 720 mmHg 64%
    07:00 +19°C° 0 mm 1 mps 720 mmHg 61%
    08:00 +20°C° 0 mm 1 mps 721 mmHg 59%
    09:00 +22°C° 0 mm 1 mps 721 mmHg 54%
    10:00 +23°C° 0 mm 1 mps 721 mmHg 50%
    11:00 +25°C° 0 mm 1 mps 721 mmHg 46%
    12:00 +26°C° 0 mm 1 mps 720 mmHg 43%
    13:00 +27°C° 0 mm 1 mps 720 mmHg 40%
    14:00 +28°C° 0 mm 2 mps 719 mmHg 37%
    15:00 +28°C° 0 mm 2 mps 719 mmHg 37%
    16:00 +28°C° 0 mm 2 mps 719 mmHg 37%
    17:00 +28°C° 0 mm 1 mps 719 mmHg 37%
    18:00 +26°C° 0 mm 1 mps 719 mmHg 42%
    19:00 +24°C° 0 mm 1 mps 719 mmHg 47%
    20:00 +20°C° 0 mm 0 mps 719 mmHg 52%
    21:00 +20°C° 0 mm 0 mps 720 mmHg 53%
    22:00 +21°C° 0 mm 1 mps 720 mmHg 54%
    23:00 +21°C° 0 mm 1 mps 720 mmHg 55%

    8 April, Wednesday

    Time Temperature Precipitation Wind Pressure Humidity
    00:00 +20°C° 0 mm 1 mps 720 mmHg 57%
    01:00 +20°C° 0 mm 1 mps 720 mmHg 59%
    02:00 +19°C° 0 mm 1 mps 719 mmHg 61%
    03:00 +19°C° 0 mm 1 mps 719 mmHg 62%
    04:00 +19°C° 0 mm 1 mps 719 mmHg 63%
    05:00 +18°C° 0 mm 1 mps 719 mmHg 64%
    06:00 +19°C° 0 mm 1 mps 719 mmHg 62%
    07:00 +21°C° 0 mm 1 mps 720 mmHg 60%
    08:00 +22°C° 0 mm 1 mps 720 mmHg 58%
    09:00 +23°C° 0 mm 1 mps 720 mmHg 54%
    10:00 +24°C° 0 mm 2 mps 720 mmHg 50%
    11:00 +26°C° 0 mm 2 mps 720 mmHg 46%
    12:00 +26°C° 0 mm 2 mps 720 mmHg 46%
    13:00 +27°C° 0 mm 2 mps 720 mmHg 45%
    14:00 +27°C° 0 mm 2 mps 720 mmHg 44%
    15:00 +26°C° 0 mm 3 mps 720 mmHg 49%
    16:00 +25°C° 0 mm 3 mps 720 mmHg 53%
    17:00 +23°C° 0 mm 4 mps 720 mmHg 57%
    18:00 +21°C° 0.1 mm 5 mps 720 mmHg 60%
    19:00 +19°C° 0.1 mm 5 mps 720 mmHg 64%
    20:00 +16°C° 0.1 mm 5 mps 721 mmHg 68%
    21:00 +15°C° 0.7 mm 5 mps 721 mmHg 72%
    22:00 +14°C° 0.7 mm 5 mps 721 mmHg 76%
    23:00 +13°C° 0.7 mm 5 mps 722 mmHg 80%
    Show more